Regional Weather Roundup
Issued by NWS

Home | Current Version | Previous Version | Graphics & Text | Print | Product List | Glossary On
Versions: 1 2 3 4 5 6 7 8 9 10 11 12 13 14 15 16 17 18 19 20 21 22 23 24 25 26 27 28 29 30 31 32 33 34 35 36 37 38 39 40 41 42 43 44 45 46 47 48 49 50
000
ASUS43 KBIS 261410
RWRND

NORTH DAKOTA REGIONAL WEATHER ROUNDUP
NATIONAL WEATHER SERVICE BISMARCK ND
900 AM CDT THU MAY 26 2016

NOTE: "FAIR" INDICATES FEW OR NO CLOUDS BELOW 12,000 FEET WITH NO
SIGNIFICANT WEATHER AND/OR OBSTRUCTIONS TO VISIBILITY.


NDZ001>003-009>011-017-261500-
NORTHWEST NORTH DAKOTA

CITY           SKY/WX    TMP DP  RH WIND       PRES   REMARKS
WILLISTON      CLOUDY    50  48  93 W7        29.81F
MINOT          CLOUDY    58  55  90 W10       29.77S FOG
MINOT AFB      RAIN      55  55 100 E8        29.77R FOG
$$

NDZ018>021-031>035-040>046-261500-
SOUTHWEST NORTH DAKOTA

CITY           SKY/WX    TMP DP  RH WIND       PRES   REMARKS
BISMARCK       SUNNY     56  48  74 W7        29.83S
DICKINSON      CLOUDY    52  46  80 W12       29.83R
GARRISON         N/A     53  50  89 NW6       29.80R
HETTINGER ARPT PTSUNNY   56  47  71 W15       29.88R
$$

NDZ004>008-012>016-024-026-027-054-261500-
NORTHEAST NORTH DAKOTA

CITY           SKY/WX    TMP DP  RH WIND       PRES   REMARKS
GRAND FORKS    CLOUDY    61  56  83 W13       29.72F
GRND FRKS AFB  CLOUDY    60  57  88 W9        29.73S
DEVILS LAKE    CLOUDY    56  54  93 NW6       29.76R
$$

NDZ022-023-025-028>030-036>039-047>053-261500-
SOUTHEAST NORTH DAKOTA

CITY           SKY/WX    TMP DP  RH WIND       PRES   REMARKS
FARGO          PTSUNNY   60  56  86 SW8       29.76R
JAMESTOWN      CLOUDY    56  53  90 W13       29.78S
$$





USA.gov is the U.S. government's official web portal to all federal, state and local government web resources and services.